Weather in Ylistaro

Finland     62°56′24″N   22°30′47″E
temp.,
°C
wind,
m/s
gust,
m/s
humid.,
%
clouds,
%
prec.,
mm/h
press.,
hPa
HPBL,
m
9 may, sun
sun900:00+2sw39697 0.0 1009234
03:000sw310815 0.0 1010218
06:000sw27817 0.0 1010167
09:00+7ssw36516 0.0 1010601
12:00+10sw364099 0.1 10102238
15:00+12wsw473399 0.1 10102359
18:00+11sw4843100 0.0 10102031
21:00+8ssw495892 0.0 1011903
10 may, mon
mon1000:00+5ssw3107796 0.0 1011657
03:00+5sse3891100 0.0 1011840
06:00+5se4991100 0.1 1010802
09:00+5sse3890100 0.3 1010646
12:00+8s3581100 0.0 1010706
15:00+9s2584100 0.2 1011564
18:00+8se1499100 2.9 1011148
21:00+8se1199100 5.1 101134
11 may, tue
tue1100:00+8ssw1299100 0.6 101251
03:00+9sse31096100 0.6 1013378
06:00+9sse41493100 0.0 1012449
09:00+14s5158559 0.0 1012818
12:00+18ssw61268100 0.0 10131233
15:00+19ssw61060100 0.0 10151402
18:00+18sw4967100 0.0 10161113
21:00+15sw397799 0.0 1017694
12 may, wed
wed1200:00+12sse2895100 0.0 1018175
03:00+12sse3119091 0.0 1018316
06:00+11sse311869 0.0 1019320
09:00+16s376722 0.0 1019525
12:00+20s46495 0.0 10191265
15:00+23s46351 0.0 10191757
18:00+23s353549 0.0 10181828
21:00+15nw25695 0.0 1019146
13 may, thu
thu1300:00+11ene118539 0.0 102011
03:00+11se228426 0.0 101935
06:00+12se26850 0.0 1019126
09:00+18se355828 0.0 1018406
12:00+22se35443 0.0 10161398
15:00+22se3548100 0.0 10141491
18:00+21se3654100 0.1 10121332
21:00+16ese2778100 0.8 1011286